This demonstration page uses our WeatherBlox Daily Observations layout. Learn more.

38.89511, -77.03637

Hourly Observations for February 22, 2015

Temp ( °F °C ) Dew Point ( °F °C ) Humidity (%) Winds ( mph kmh ) Pressure ( in mb ) Visibility ( mi km ) Precip ( " mm )
12:52 am 00:52 Cloudy with Light Rain 35 1.7 31 -0.6 85 85 S 8 13 30.14 1021 4 6.43736 0.03 0.762
1:32 am 01:32 Cloudy with Light Rain 36 2 30 -1 81 81 S 8 13 30.15 1021 7 11.26538 0 0
1:38 am 01:38 Cloudy with Light Rain 36 2 30 -1 81 81 S 7 11 30.15 1021 6 9.65604 0 0
1:52 am 01:52 Cloudy with Light Rain 35 1.7 31 -0.6 85 85 S 7 11 30.14 1021 5 8.0467 0.02 0.508
2:52 am 02:52 Cloudy with Light Rain 35 1.7 31 -0.6 85 85 S 8 13 30.13 1020 5 8.0467 0.03 0.762
3:04 am 03:04 Cloudy with Light Rain 36 2 30 -1 81 81 S 9 15 30.12 1020 5 8.0467 0 0
3:31 am 03:31 Cloudy with Light Drizzle 36 2 30 -1 81 81 S 9 15 30.12 1020 5 8.0467 0.02 0.508
3:39 am 03:39 Cloudy with Light Drizzle 36 2 30 -1 81 81 S 9 15 30.12 1020 5 8.0467 0.02 0.508
3:52 am 03:52 Cloudy with Light Drizzle 35 1.7 32 0 89 89 SSW 5 7 30.12 1020 5 8.0467 0.02 0.508
4:52 am 04:52 Cloudy with Light Rain 36 2.2 31 -0.6 82 82 Calm 30.13 1020 5 8.0467 0 0.0254
5:52 am 05:52 Cloudy with Light Rain 36 2.2 32 0 86 86 Calm 30.14 1021 5 8.0467 0 0.0254
6:52 am 06:52 Cloudy with Mist and Fog 36 2.2 32 0 86 86 Calm 30.15 1021 5 8.0467 0 0.0254
7:52 am 07:52 Cloudy with Mist and Fog 36 2.2 32 0 86 86 SSE 3 6 30.17 1022 5 8.0467 0 0
7:59 am 07:59 Cloudy with Mist and Fog 36 2 32 0 87 87 Calm 30.18 1022 4 6.43736 0 0
8:40 am 08:40 Cloudy with Haze 37 3 32 0 81 81 Calm 30.18 1022 4 6.43736 0 0
8:52 am 08:52 Cloudy with Haze 38 3.3 33 0.6 83 83 Calm 30.18 1022 5 8.0467 0 0
9:52 am 09:52 Cloudy with Mist and Fog 37 2.8 33 0.6 86 86 Calm 30.19 1022 5 8.0467 0 0
10:52 am 10:52 Cloudy with Haze 39 3.9 33 0.6 79 79 Calm 30.21 1023 5 8.0467 0 0
11:52 am 11:52 Mostly Cloudy with Haze 42 5.6 34 1.1 73 73 Calm 30.21 1023 6 9.65604 0 0
12:52 pm 12:52 Mostly Cloudy with Haze 44 6.7 34 1.1 68 68 Calm 30.19 1022 6 9.65604 0 0
1:52 pm 13:52 Mostly Cloudy 47 8.3 35 1.7 63 63 Calm 30.18 1022 8 12.87472 0 0
2:52 pm 14:52 Mostly Cloudy 47 8.3 34 1.1 61 61 NE 3 6 30.18 1022 10 16.0934 0 0
3:52 pm 15:52 Mostly Cloudy 49 9.4 30 -1.1 48 48 NNW 9 15 30.19 1022 10 16.0934 0 0
4:52 pm 16:52 Mostly Cloudy 48 8.9 30 -1.1 50 50 NW 3 6 30.19 1022 10 16.0934 0 0
5:52 pm 17:52 Mostly Cloudy 46 7.8 29 -1.7 51 51 N 5 7 30.2 1023 10 16.0934 0 0
6:52 pm 18:52 Mostly Cloudy 43 6.1 30 -1.1 60 60 Calm 30.22 1023 10 16.0934 0 0
7:52 pm 19:52 Mostly Cloudy 42 5.6 32 0 68 68 S 5 7 30.23 1024 10 16.0934 0 0
8:52 pm 20:52 Mostly Cloudy 41 5 33 0.6 73 73 SSW 6 9 30.26 1025 10 16.0934 0 0
9:52 pm 21:52 Cloudy 38 3.3 31 -0.6 76 76 Calm 30.27 1025 10 16.0934 0 0
10:52 pm 22:52 Cloudy 42 5.6 29 -1.7 60 60 NNW 8 13 30.27 1025 10 16.0934 0 0
11:52 pm 23:52 Cloudy 41 5 29 -1.7 62 62 NNW 8 13 30.26 1025 10 16.0934 0 0

Powered by AerisWeather